[[{"header":{"parameterUnit":"m.s-1","parameterCategory":1,"la1":30.2991,"la2":30.254,"lo1":-89.0895,"lo2":-89.0444,"dy":0.0017,"dx":0.0017,"nx":28,"ny":28,"refTime":"2024-08-06T09:00:00:Z","depth":0,"parameterNumber":2,"parameterNumberName":"U-component_of_WINDS"},"data":[0,0,0,0,0,0,0,0,0,0,0,0,0,0,0,0,0,0,0,0,0,0,0,0,0,0,0,0,0,0,0,0,0,0,0,0,0,0,0,0,0,0,0,0,0,0,0,0,0,0,0,0,0,0,0,0,0,0,2.5269,2.527,0,2.5308,2.5309,2.5309,2.5246,2.5244,2.5242,2.524,2.5281,2.5284,2.5287,0,0,0,0,0,0,0,0,0,0,0,0,0,2.5144,2.5146,2.5269,2.527,2.527,2.5308,2.5309,2.5309,2.5247,2.5244,2.5241,2.5239,2.528,2.5284,2.5288,0,0,0,0,0,0,0,0,0,0,0,0,0,2.5192,2.5147,2.5269,2.5244,2.5242,2.5308,2.5309,2.5309,2.5247,2.5244,2.5241,2.5238,2.5279,2.5283,2.5288,2.5382,0,0,2.5302,2.5304,0,0,0,0,0,0,0,0,2.5189,2.5197,2.5247,2.5246,2.5243,2.5269,2.5279,2.5334,2.5248,2.5245,2.524,2.5236,2.528,2.5284,2.5299,2.5384,2.5385,2.5303,2.5306,2.5308,2.5309,0,0,0,0,0,0,0,2.5186,2.5195,2.5285,2.5248,2.5246,2.5231,2.5234,2.5289,2.528,2.5245,2.5241,2.5246,2.5278,2.5294,2.5299,2.5386,2.5303,2.5307,2.531,2.5311,2.5553,2.5557,0,0,0,0,0,0,2.5186,2.5192,2.5284,2.5286,2.5208,2.5236,2.524,2.5264,2.5279,2.5279,2.5249,2.5243,2.5288,2.5294,2.53,2.5414,2.5308,2.5312,2.5315,2.555,2.5554,2.5558,0,0,0,0,0,0,2.5183,2.5194,2.5282,2.5238,2.5248,2.5242,2.527,2.5267,2.5283,2.5282,2.528,2.5267,2.5286,2.5294,2.5363,2.5414,2.5314,2.5318,2.5545,2.5551,2.5556,2.5639,0,0,0,0,0,0,2.518,2.5194,2.5229,2.5239,2.5251,2.5343,2.5273,2.527,2.5291,2.5283,2.5299,2.5298,2.5284,2.5356,2.5367,2.5419,2.5322,2.5541,2.5548,2.5554,2.5632,2.5647,2.566,0,0,0,0,0,2.5176,2.525,2.5231,2.5242,2.5294,2.5346,2.5353,2.5334,2.5295,2.5331,2.5331,2.5298,2.5406,2.5364,2.5376,2.5429,2.5538,2.5546,2.5554,2.5626,2.5644,2.566,0,0,0,0,0,0,2.5246,2.5251,2.5229,2.5309,2.5328,2.5335,2.5379,2.5354,2.5384,2.5376,2.5352,2.5356,2.5431,2.5436,2.5389,2.5523,2.5466,2.5477,2.5516,2.5534,2.5547,2.5545,2.5326,0,0,0,0,0,2.527,2.5311,2.5314,2.5385,2.5395,2.5386,2.5408,2.5392,2.541,2.5418,2.5423,2.5443,2.5481,2.5507,2.5543,2.5632,2.5636,2.5675,2.5689,2.5701,2.5711,2.5762,2.578,2.5585,2.5585,2.5585,0,0,2.5322,2.533,2.5357,2.5399,2.5411,2.5456,2.5393,2.5442,2.5475,2.5425,2.5491,2.5496,2.5516,2.5597,2.5633,2.5604,2.5766,2.5711,2.572,2.5724,2.5772,2.5791,2.5807,2.559,2.5589,2.5588,0,0,2.5439,2.5448,2.5509,2.5523,2.5543,2.5537,2.5552,2.5564,2.5565,2.5631,2.5595,2.5635,2.5701,2.5718,2.5736,2.5862,2.5834,2.5874,2.5947,2.5997,2.6013,2.6026,2.6074,2.6091,2.5884,2.5884,2.5884,0,2.5501,2.5566,2.5544,2.5597,2.5617,2.5574,2.5637,2.5652,2.5683,2.5698,2.5666,2.575,2.5761,2.5846,2.5877,2.5892,2.591,2.5873,2.6012,2.6026,2.6038,2.6084,2.6101,2.5889,2.5889,2.5888,2.5888,0,2.5643,2.5688,2.5736,2.5767,2.5792,2.585,2.5838,2.5867,2.5849,2.5847,2.5916,2.5928,2.5966,2.5985,2.5968,2.6069,2.6051,2.6016,2.5958,2.6062,2.6105,2.6122,2.5896,2.5895,2.5893,2.5892,0,0,2.5805,2.5825,2.5843,2.5858,2.5877,2.5913,2.5969,2.6007,2.6033,2.6056,2.6104,2.6163,2.6131,2.6151,2.6136,2.6179,2.6282,2.6139,2.6139,2.6168,2.6398,2.6426,2.6447,2.6263,2.6266,2.6269,2.6397,0,2.5924,2.6021,2.6004,2.6099,2.6143,2.6104,2.6153,2.6172,2.6171,2.6209,2.6209,2.6252,2.6205,2.6218,2.6259,2.6261,2.6329,2.6251,2.631,2.6313,2.6309,2.6468,2.6498,2.6618,2.6413,2.6416,2.6418,0,2.6075,2.6105,2.6205,2.622,2.6238,2.6282,2.6317,2.6353,2.6374,2.6371,2.6394,2.6372,2.643,2.6371,2.6452,2.64,2.6423,2.6428,2.6432,2.6439,2.6373,2.6482,2.6656,2.6675,2.6443,2.6441,2.644,0,2.6188,2.6252,2.6321,2.6334,2.6353,2.6386,2.6395,2.6413,2.6437,2.6468,2.6484,2.6521,2.6541,2.6571,2.656,2.6517,2.6645,2.6584,2.6646,2.6647,2.6676,2.6675,2.686,2.6687,2.6687,2.6687,2.6686,0,2.6324,2.6387,2.6372,2.6414,2.6485,2.6465,2.6536,2.654,2.6557,2.6601,2.6568,2.6611,2.6592,2.6634,2.6625,2.6696,2.6705,2.6706,2.6703,2.671,2.6711,2.6727,2.6719,2.6692,2.6691,2.669,2.6689,0,2.6461,2.6453,2.6526,2.6538,2.6543,2.6595,2.6606,2.6647,2.6644,2.6701,2.6713,2.671,2.6757,2.6749,2.6801,2.6795,2.6885,2.687,2.6878,2.6876,2.694,2.6935,2.7143,2.7171,2.6978,2.698,2.6981,0,2.655,2.6598,2.6615,2.6643,2.6655,2.6699,2.6724,2.6707,2.6735,2.6764,2.6802,2.6846,2.6881,2.696,2.6963,2.7004,2.6992,2.7062,2.6998,2.7004,2.6996,2.6995,2.7001,2.7075,2.7078,2.7079,2.7081,0,2.6709,2.6703,2.674,2.6778,2.6809,2.6837,2.6863,2.6887,2.6872,2.6906,2.6954,2.6981,2.7036,2.7082,2.712,2.7131,2.7105,2.7101,2.7118,2.7127,2.713,2.7132,2.6916,2.7096,2.7095,2.7094,2.7093,2.7092,2.6826,2.6868,2.6888,2.6932,2.6949,2.6974,2.7014,2.7017,2.7057,2.71,2.7087,2.7143,2.7165,2.7214,2.723,2.7274,2.7248,2.7272,2.7279,2.7286,2.7295,2.7121,2.7281,2.728,2.728,2.728,2.7279,0,2.6986,2.6997,2.7037,2.7074,2.711,2.7081,2.7108,2.714,2.7189,2.7212,2.7247,2.7305,2.7349,2.7357,2.74,2.7434,2.7424,2.7447,2.7445,2.7449,2.7314,2.7297,2.7455,2.7455,2.7455,2.7455,2.7455,2.7455,2.7073,2.7144,2.7141,2.7221,2.7231,2.7286,2.7304,2.7328,2.7346,2.7412,2.7449,2.7453,2.747,2.7515,2.7556,2.7557,2.7576,2.7604,2.7601,2.7475,2.7458,2.7441,2.7425,2.7607,2.7607,2.7732,2.7733,2.7734]},{"header":{"parameterUnit":"m.s-1","parameterCategory":1,"la1":30.2991,"la2":30.254,"lo1":-89.0895,"lo2":-89.0444,"dy":0.0017,"dx":0.0017,"nx":28,"ny":28,"refTime":"2024-08-06T09:00:00:Z","depth":0,"parameterNumber":3,"parameterNumberName":"V-component_of_WINDS"},"data":[0,0,0,0,0,0,0,0,0,0,0,0,0,0,0,0,0,0,0,0,0,0,0,0,0,0,0,0,0,0,0,0,0,0,0,0,0,0,0,0,0,0,0,0,0,0,0,0,0,0,0,0,0,0,0,0,0,0,-0.8907,-0.8908,0,-0.8947,-0.8948,-0.8948,-0.8992,-0.8993,-0.8993,-0.8994,-0.9033,-0.9033,-0.9034,0,0,0,0,0,0,0,0,0,0,0,0,0,-0.8868,-0.8868,-0.8907,-0.8908,-0.8908,-0.8947,-0.8948,-0.8948,-0.8992,-0.8993,-0.8993,-0.8994,-0.9033,-0.9033,-0.9034,0,0,0,0,0,0,0,0,0,0,0,0,0,-0.8894,-0.8868,-0.8907,-0.8935,-0.8938,-0.8947,-0.8948,-0.8949,-0.8992,-0.8993,-0.8994,-0.8995,-0.9033,-0.9033,-0.9034,-0.9019,0,0,-0.9036,-0.9036,0,0,0,0,0,0,0,0,-0.8892,-0.8895,-0.893,-0.8933,-0.8936,-0.8966,-0.8948,-0.8972,-0.8991,-0.8971,-0.8994,-0.8995,-0.901,-0.9012,-0.9018,-0.9021,-0.9022,-0.9036,-0.9036,-0.9037,-0.9037,0,0,0,0,0,0,0,-0.8891,-0.8894,-0.8923,-0.8931,-0.8934,-0.8945,-0.895,-0.8953,-0.8984,-0.8973,-0.8976,-0.898,-0.9011,-0.9017,-0.9019,-0.9023,-0.9036,-0.9036,-0.9037,-0.9037,-0.9016,-0.9015,0,0,0,0,0,0,-0.8885,-0.8892,-0.8922,-0.8924,-0.8916,-0.8945,-0.895,-0.8955,-0.8985,-0.899,-0.898,-0.8982,-0.9015,-0.9018,-0.902,-0.9005,-0.9037,-0.9037,-0.9038,-0.9017,-0.9016,-0.9015,0,0,0,0,0,0,-0.8884,-0.8887,-0.892,-0.8909,-0.8914,-0.8945,-0.895,-0.8955,-0.8961,-0.899,-0.8995,-0.8979,-0.9016,-0.9019,-0.9019,-0.9007,-0.9038,-0.9038,-0.9018,-0.9017,-0.9016,-0.8973,0,0,0,0,0,0,-0.8882,-0.8886,-0.8881,-0.8909,-0.8915,-0.8918,-0.8949,-0.8956,-0.8962,-0.8966,-0.8991,-0.8996,-0.9017,-0.9018,-0.902,-0.9008,-0.9039,-0.902,-0.9018,-0.9016,-0.8976,-0.897,-0.8966,0,0,0,0,0,-0.8881,-0.8867,-0.8881,-0.8884,-0.8909,-0.8918,-0.8921,-0.8946,-0.8961,-0.8956,-0.8975,-0.8995,-0.9008,-0.9018,-0.902,-0.9008,-0.9021,-0.9018,-0.9016,-0.8978,-0.8972,-0.8966,0,0,0,0,0,0,-0.8836,-0.8871,-0.8886,-0.8881,-0.8896,-0.8925,-0.8919,-0.8938,-0.8949,-0.8952,-0.8983,-0.8988,-0.8984,-0.8996,-0.9006,-0.8996,-0.9017,-0.9016,-0.8987,-0.8981,-0.8977,-0.8973,-0.9039,0,0,0,0,0,-0.8826,-0.883,-0.8861,-0.8853,-0.886,-0.8888,-0.8893,-0.8911,-0.8928,-0.8934,-0.8953,-0.8967,-0.8975,-0.8979,-0.8988,-0.8979,-0.8984,-0.8972,-0.8967,-0.8963,-0.896,-0.8956,-0.8951,-0.9008,-0.9008,-0.9008,0,0,-0.8804,-0.8824,-0.8825,-0.8845,-0.8858,-0.8862,-0.8893,-0.8896,-0.8899,-0.8934,-0.8935,-0.895,-0.8968,-0.8963,-0.8962,-0.8974,-0.8946,-0.896,-0.8956,-0.8956,-0.8954,-0.8948,-0.8943,-0.9007,-0.9007,-0.9007,0,0,-0.8766,-0.8782,-0.8777,-0.8791,-0.8812,-0.8831,-0.883,-0.8856,-0.8867,-0.8869,-0.8896,-0.89,-0.8912,-0.8925,-0.8932,-0.8901,-0.892,-0.8903,-0.8877,-0.8872,-0.8868,-0.8864,-0.8852,-0.8848,-0.8901,-0.8901,-0.8901,0,-0.8736,-0.8743,-0.8772,-0.8774,-0.8781,-0.8815,-0.8811,-0.8823,-0.8845,-0.8849,-0.8862,-0.8879,-0.8894,-0.8893,-0.8885,-0.889,-0.889,-0.8899,-0.8866,-0.8863,-0.886,-0.8849,-0.8844,-0.8899,-0.8899,-0.8899,-0.8899,0,-0.8705,-0.871,-0.8704,-0.8725,-0.8733,-0.8731,-0.876,-0.8764,-0.8782,-0.88,-0.8802,-0.8821,-0.8834,-0.8836,-0.8853,-0.8837,-0.8843,-0.8861,-0.8883,-0.8851,-0.8842,-0.8838,-0.8895,-0.8896,-0.8897,-0.8897,0,0,-0.8638,-0.8677,-0.8674,-0.8685,-0.8711,-0.8715,-0.8716,-0.8729,-0.8732,-0.8747,-0.8747,-0.8758,-0.8775,-0.8784,-0.8803,-0.88,-0.8773,-0.8818,-0.8819,-0.8808,-0.8756,-0.8742,-0.8736,-0.8787,-0.8786,-0.8786,-0.8754,0,-0.8604,-0.8607,-0.8634,-0.8628,-0.8633,-0.8666,-0.8667,-0.8683,-0.87,-0.8706,-0.8725,-0.8732,-0.8754,-0.8759,-0.8758,-0.8777,-0.8763,-0.878,-0.8787,-0.8787,-0.878,-0.8731,-0.8716,-0.8685,-0.8751,-0.875,-0.875,0,-0.8564,-0.8578,-0.8573,-0.86,-0.8604,-0.8603,-0.8618,-0.8624,-0.8644,-0.8656,-0.8667,-0.8689,-0.8691,-0.8713,-0.8716,-0.8727,-0.8732,-0.8742,-0.8741,-0.8742,-0.8765,-0.8729,-0.8676,-0.8671,-0.8744,-0.8745,-0.8745,0,-0.8515,-0.8532,-0.8531,-0.854,-0.8572,-0.8571,-0.8584,-0.8604,-0.8611,-0.8624,-0.8629,-0.8642,-0.8649,-0.8659,-0.8684,-0.8698,-0.8684,-0.8708,-0.8694,-0.8693,-0.8688,-0.8687,-0.8633,-0.8693,-0.8693,-0.8693,-0.8693,0,-0.8473,-0.8469,-0.851,-0.8509,-0.8506,-0.8537,-0.8532,-0.8549,-0.8567,-0.857,-0.86,-0.8602,-0.8636,-0.8642,-0.8662,-0.8661,-0.8664,-0.8674,-0.8679,-0.8671,-0.8669,-0.8673,-0.8675,-0.8692,-0.8692,-0.8693,-0.8693,0,-0.8416,-0.8444,-0.8445,-0.8476,-0.8484,-0.848,-0.8506,-0.8507,-0.8527,-0.853,-0.8533,-0.8564,-0.8573,-0.8599,-0.8615,-0.8628,-0.8621,-0.8632,-0.8614,-0.8617,-0.8601,-0.8602,-0.8547,-0.8541,-0.8605,-0.8605,-0.8604,0,-0.8387,-0.8385,-0.8416,-0.8421,-0.8433,-0.844,-0.8448,-0.8479,-0.8485,-0.8508,-0.8506,-0.8517,-0.8528,-0.8541,-0.8564,-0.8576,-0.8586,-0.8566,-0.8588,-0.858,-0.8585,-0.8584,-0.8584,-0.856,-0.856,-0.8559,-0.8558,0,-0.8332,-0.8346,-0.8356,-0.8371,-0.838,-0.8393,-0.8408,-0.841,-0.8445,-0.845,-0.846,-0.8469,-0.8485,-0.8496,-0.8512,-0.8526,-0.8547,-0.8552,-0.8549,-0.8539,-0.8529,-0.8533,-0.86,-0.8552,-0.8553,-0.8553,-0.8554,-0.8554,-0.8288,-0.8288,-0.831,-0.832,-0.8335,-0.8348,-0.835,-0.8371,-0.838,-0.8396,-0.8415,-0.8422,-0.8443,-0.8467,-0.8479,-0.8485,-0.8497,-0.8493,-0.8491,-0.849,-0.8485,-0.853,-0.8488,-0.8488,-0.8489,-0.8489,-0.8489,0,-0.8234,-0.825,-0.8259,-0.828,-0.8288,-0.831,-0.8327,-0.8332,-0.8339,-0.8357,-0.8367,-0.8379,-0.839,-0.8415,-0.8428,-0.8428,-0.8438,-0.843,-0.843,-0.8433,-0.8474,-0.8475,-0.8422,-0.8422,-0.8422,-0.8422,-0.8422,-0.8422,-0.8206,-0.8207,-0.8224,-0.8232,-0.8248,-0.8257,-0.8265,-0.8277,-0.8292,-0.8303,-0.8313,-0.833,-0.835,-0.8366,-0.8377,-0.8384,-0.8387,-0.8375,-0.8385,-0.8423,-0.843,-0.8436,-0.8436,-0.8376,-0.8376,-0.8343,-0.8342,-0.8342]}]]